This is the latest recevied weather packets stored in our database for station/object KB3YCK-2. If no packets are shown the sender has not sent any weather packets the latest 10 day(s).
| Time | Temp. | Humidity | Pressure | Rain* | Wind** | Luminosity | Snow |
|---|---|---|---|---|---|---|---|
| 1777502105 | 11.67° C | 79% | 1009.9 hPa | 0 mm | - | 14 W/m² | - |
| 1777501506 | 12.22° C | 79% | 1009.8 hPa | 0 mm | - | 23 W/m² | - |
| 1777500904 | 12.22° C | 79% | 1009.9 hPa | 0 mm | - | 30 W/m² | - |
| 1777500607 | 12.22° C | 78% | 1010.1 hPa | 0 mm | - | 19 W/m² | - |
| 1777496704 | 13.89° C | 74% | 1010 hPa | 0 mm | - | 79 W/m² | - |
| 1777496412 | 13.89° C | 74% | 1010.1 hPa | 0 mm | - | 125 W/m² | - |
| 1777494909 | 14.44° C | 74% | 1010.3 hPa | 0 mm | - | 148 W/m² | - |
| 1777494629 | 14.44° C | 75% | 1010.2 hPa | 0 mm | - | 160 W/m² | - |
| 1777493704 | 14.44° C | 75% | 1010.4 hPa | 0 mm | - | 139 W/m² | - |
| 1777492805 | 14.44° C | 76% | 1010.7 hPa | 0 mm | - | 248 W/m² | - |
| 1777491903 | 14.44° C | 75% | 1011.1 hPa | 0 mm | - | 128 W/m² | - |
| 1777491008 | 14.44° C | 76% | 1011.4 hPa | 0 mm | - | 178 W/m² | - |
| 1777489502 | 15° C | 76% | 1012.3 hPa | 0 mm | - | 135 W/m² | - |
| 1777486203 | 15.56° C | 75% | 1012.4 hPa | 0 mm | - | 179 W/m² | - |
| 1777485903 | 15.56° C | 75% | 1012.8 hPa | 0 mm | - | 121 W/m² | - |
| 1777485004 | 15.56° C | 74% | 1013.2 hPa | 0 mm | - | 105 W/m² | - |
| 1777480212 | 15° C | 73% | 1014.4 hPa | 0 mm | - | 179 W/m² | - |
| 1777476006 | 13.89° C | 70% | 1015.2 hPa | 0 mm | - | 197 W/m² | - |
| 1777470608 | 12.78° C | 73% | 1015.5 hPa | 0 mm | - | 186 W/m² | - |
| 1777469703 | 12.78° C | 73% | 1015.5 hPa | 0 mm | - | 151 W/m² | - |
| 1777469420 | 12.78° C | 73% | 1015.5 hPa | 0 mm | - | 178 W/m² | - |
| 1777468803 | 12.78° C | 73% | 1015.5 hPa | 0 mm | - | 146 W/m² | - |
| 1777468508 | 12.78° C | 73% | 1015.6 hPa | 0 mm | - | 120 W/m² | - |
| 1777467007 | 11.67° C | 73% | 1015.7 hPa | 0 mm | - | 234 W/m² | - |
* Rain latest hour (hover to see other rain measurements)
** Current wind speed in m/s (hover to see current wind gust speed)